Regional Weather Roundup
Issued by NWS

Home | Current Version | Previous Version | Graphics & Text | Print | Product List | Glossary On
Versions: 1 2 3 4 5 6 7 8 9 10 11 12 13 14 15 16 17 18 19 20 21 22 23 24 25 26 27 28 29 30 31 32 33 34 35 36 37 38 39 40 41 42 43 44 45 46 47 48 49 50
000
ASUS45 KCYS 201510
RWRWY

WYOMING REGIONAL WEATHER ROUNDUP
NATIONAL WEATHER SERVICE CHEYENNE WY
800 AM MST SAT DEC 20 2014

NOTE:  "FAIR" INDICATES FEW OR NO CLOUDS BELOW 12,000 FEET
WITH NO SIGNIFICANT WEATHER AND/OR OBSTRUCTIONS TO VISIBILITY.

WYZ001-201600-
YELLOWSTONE NATIONAL PARK

CITY           SKY/WX    TMP DP  RH WIND       PRES   REMARKS
LK YELLOWSTONE   N/A     24  20  84 VRB5      30.00F WCI  18
W YELLOWSTONE  NOT AVBL

$$
WYZ002>013-054>058-071-098>099-201600-
NORTHERN WYOMING

CITY           SKY/WX    TMP DP  RH WIND       PRES   REMARKS
JACKSON        CLOUDY    30  27  86 CALM      30.02F
CODY           FAIR      36  21  55 SW8       29.92R WCI  29
GREYBULL       FAIR      10   8  92 NW6       29.98R WCI   0
WORLAND        FAIR      10   7  87 CALM      29.96R
SHERIDAN       FAIR      22  17  81 SE6       29.92R WCI  14
BUFFALO        FAIR      36  19  50 SW5       29.92S WCI  32
GILLETTE       FAIR      25  20  81 S3        29.91F
HULETT           N/A    N/A N/A N/A MISG        N/A
NEWCASTLE      FAIR      28  23  80 CALM      29.95S

$$
WYZ014>020-022>026-101>103-201600-
CENTRAL WYOMING

CITY           SKY/WX    TMP DP  RH WIND       PRES   REMARKS
BIG PINEY      CLOUDY    20  17  88 NE3       30.05S
PINEDALE       PTSUNNY   21  21 100 CALM      30.03F
DUBOIS         NOT AVBL
LANDER         FAIR      19  13  77 NW5       29.94S WCI  12
RIVERTON       FAIR       9   5  84 NW5       29.97R WCI   1
CASPER         FAIR      30  22  72 SW20      29.96F WCI  17
DOUGLAS        FAIR      27  22  81 N8        29.97R WCI  19

$$
WYZ021-027>030-104>119-201600-
SOUTHERN WYOMING

CITY           SKY/WX    TMP DP  RH WIND       PRES   REMARKS
EVANSTON       CLOUDY    29  27  92 SW9       30.06S WCI  20
KEMMERER       CLOUDY    28  28 100 SW3       30.04F
FORT BRIDGER   CLOUDY    32  29  88 W6        30.08F WCI  26
ROCK SPRINGS   CLOUDY    29  23  78 SW16      30.05S WCI  17
DIXON          CLOUDY    27  23  86 NW3       30.13F
RAWLINS        FAIR      27  20  75 VRB5      30.03F WCI  22
SARATOGA       CLOUDY    28  21  74 E3        30.07S
LARAMIE        FAIR      25  18  74 SW13      29.99R WCI  14
CHEYENNE       CLOUDY    36  18  48 W10       29.99R WCI  28
TORRINGTON     FAIR     N/A N/A N/A CALM      29.96R
PINE BLUFFS    CLOUDY    32  23  69 SW7       30.01S WCI  26

$$


USA.gov is the U.S. government's official web portal to all federal, state and local government web resources and services.